Location: ??????
(55.7522°N, 37.6156°E)
Time: 16:53:32
(UTC+00:00)

Cosmos 1892 - Pass Details

Date: 14 June 2025
Orbit: 364 x 371 km, 82.5° (Epoch: 13 July)

Event Time Altitude Azimuth Distance (km) Brightness Sun altitude
Exits shadow 19:34:50 - 130° (SE) 1,532 4.5 -7.2°
Reaches altitude 10° 19:35:19 10° 123° (ESE) 1,403 4.4 -7.3°
Maximum altitude 19:37:05 15° 87° (E) 1,162 4.3 -7.4°
Drops below altitude 10° 19:38:51 10° 51° (NE) 1,405 5.1 -7.5°
Sets 19:41:27 0° 27° (NNE) 2,259 6.6 -7.6°
